Regional Weather Roundup
Issued by NWS

Home | Current Version | Previous Version | Graphics & Text | Print | Product List | Glossary Off
Versions: 1 2 3 4 5 6 7 8 9 10 11 12 13 14 15 16 17 18 19 20 21 22 23 24 25 26 27 28 29 30 31 32 33 34 35 36 37 38 39 40 41 42 43 44 45 46 47 48 49 50

000
ASUS43 KTOP 311459
RWRKS

WEATHER ROUNDUP FOR KANSAS
NATIONAL WEATHER SERVICE GOODLAND KS
1000 AM CDT MON AUG 31 2015

NOTE:  "FAIR" INDICATES FEW OR NO CLOUDS BELOW 12,000 FEET WITH NO
SIGNIFICANT WEATHER AND/OR OBSTRUCTIONS TO VISIBILITY.

KSZ001>006-013>018-027>032-041>047-311600-
NORTHWEST KANSAS

CITY           SKY/WX    TMP DP  RH WIND       PRES   REMARKS
GOODLAND       SUNNY     71  52  50 NW7       29.98S
HAYS           SUNNY     73  61  64 S10       29.95R
HILL CITY      SUNNY     75  63  66 S10       29.94S
RUSSELL        SUNNY     75  67  76 S17       29.94R
$$

KSZ061>065-074>080-084>089-311600-
SOUTHWEST KANSAS

CITY           SKY/WX    TMP DP  RH WIND       PRES   REMARKS
DODGE CITY     SUNNY     77  57  50 S16       29.97R
ELKHART          N/A     76  52  43 S13         N/A
GARDEN CITY    SUNNY     75  55  49 S13       29.95F
GREAT BEND     SUNNY     73  64  73 S13       29.96R
LIBERAL        SUNNY     73  57  56 S14       29.99S
PRATT          SUNNY     72  64  78 CALM      29.98S
$$

KSZ066>073-081>083-090>101-311600-
SOUTHEAST KANSAS

CITY           SKY/WX    TMP DP  RH WIND       PRES   REMARKS
CHANUTE        SUNNY     76  70  82 S12       30.01R
COFFEYVILLE    SUNNY     76  70  82 S8        30.01R
HUTCHINSON     SUNNY     76  68  76 S10       29.97S
NEWTON         SUNNY     75  64  69 SE10      30.00S
PARSONS        SUNNY     76  70  82 S7        30.02R
WICHITA INTL   MOSUNNY   76  67  73 S12       29.97S
WICHITA JABRA  SUNNY     75  68  78 S12       29.98R
WINFIELD       SUNNY     77  67  71 S10       29.99S
$$

KSZ007>012-019>026-033>040-048>060-102>105-311600-
NORTHEAST KANSAS

CITY           SKY/WX    TMP DP  RH WIND       PRES   REMARKS
CONCORDIA      SUNNY     74  70  87 S9        29.96S FOG
EMPORIA        MOSUNNY   71  70  96 SE7       29.99S
LAWRENCE       SUNNY     78  71  79 S7        29.99S
MANHATTAN      SUNNY     79  72  79 S9        29.97S
OLATHE IND     SUNNY     77  70  79 S8        30.02R
OLATHE EXE     SUNNY     76  70  82 S7        30.00S
SALINA         SUNNY     79  70  74 S9        29.95F
TOPEKA BILLARD MOSUNNY   77  72  84 S6        29.99S
TOPEKA FORBES  CLOUDY    78  72  81 S6        30.00R HAZE
$$



USA.gov is the U.S. government's official web portal to all federal, state and local government web resources and services.